| time (UTC) | temp F | wind direction | speed knots | gust knots | rain 1hr in | rain 24hr in | rain mn in | humidity % | barometer mb |
| 20260507051602 | 48 | 0 | 0.0 | 2.6 | 0.00 | 0.00 | 0.00 | 34 | 1020.6 |
| 20260507050104 | 51 | 46 | 3.5 | 4.3 | 0.00 | 0.00 | 0.00 | 32 | 1020.7 |
| 20260507044606 | 52 | 1 | 1.7 | 2.6 | 0.00 | 0.00 | 0.00 | 32 | 1020.6 |
| 20260507043108 | 51 | 357 | 1.7 | 2.6 | 0.00 | 0.00 | 0.00 | 32 | 1020.5 |
| 20260507041607 | 51 | 349 | 1.7 | 2.6 | 0.00 | 0.00 | 0.00 | 31 | 1020.5 |
| 20260507040059 | 54 | 280 | 2.6 | 3.5 | 0.00 | 0.00 | 0.00 | 30 | 1020.4 |
| 20260507034613 | 54 | 295 | 2.6 | 3.5 | 0.00 | 0.00 | 0.00 | 29 | 1020.3 |
| 20260507033102 | 54 | 281 | 2.6 | 3.5 | 0.00 | 0.00 | 0.00 | 29 | 1020.3 |
| 20260507031601 | 56 | 295 | 2.6 | 3.5 | 0.00 | 0.00 | 0.00 | 26 | 1020.3 |
| 20260507024600 | 59 | 215 | 1.7 | 2.6 | 0.00 | 0.00 | 0.00 | 24 | 1020.1 |
| 20260507023104 | 60 | 0 | 0.0 | 0.9 | 0.00 | 0.00 | 0.00 | 22 | 1019.9 |
| 20260507021608 | 63 | 0 | 0.0 | 0.9 | 0.00 | 0.00 | 0.00 | 20 | 1020.0 |
| 20260507020109 | 63 | 216 | 0.9 | 3.5 | 0.00 | 0.00 | 0.00 | 20 | 1019.9 |
| 20260507014600 | 64 | 217 | 2.6 | 6.1 | 0.00 | 0.00 | 0.00 | 19 | 1019.9 |
| 20260507013103 | 64 | 198 | 2.6 | 7.8 | 0.00 | 0.00 | 0.00 | 19 | 1019.8 |
| 20260507011559 | 65 | 205 | 4.3 | 10.4 | 0.00 | 0.00 | 0.00 | 19 | 1019.7 |
| 20260507010058 | 65 | 174 | 5.2 | 10.4 | 0.00 | 0.00 | 0.00 | 18 | 1019.8 |
| 20260507004601 | 66 | 146 | 7.8 | 13.9 | 0.00 | 0.00 | 0.00 | 18 | 1020.0 |
| 20260507003100 | 65 | 133 | 8.7 | 13.0 | 0.00 | 0.00 | 0.00 | 18 | 1020.1 |
| 20260507001558 | 66 | 160 | 9.6 | 15.6 | 0.00 | 0.00 | 0.00 | 18 | 1019.9 |
| 20260507000058 | 66 | 175 | 8.7 | 13.9 | 0.00 | 0.00 | 0.00 | 20 | 1019.8 |
| 20260506234600 | 66 | 173 | 5.2 | 15.6 | 0.00 | 0.00 | 0.00 | 20 | 1019.8 |
| 20260506233104 | 66 | 202 | 7.0 | 13.9 | 0.00 | 0.00 | 0.00 | 20 | 1019.7 |
| 20260506231600 | 66 | 143 | 6.1 | 14.8 | 0.00 | 0.00 | 0.00 | 20 | 1019.7 |
| 20260506230058 | 66 | 136 | 10.4 | 17.4 | 0.00 | 0.00 | 0.00 | 20 | 1019.8 |
| 20260506224609 | 66 | 150 | 6.1 | 13.9 | 0.00 | 0.00 | 0.00 | 21 | 1019.8 |
| 20260506223112 | 65 | 141 | 7.8 | 17.4 | 0.00 | 0.00 | 0.00 | 20 | 1019.8 |
| 20260506221607 | 65 | 195 | 10.4 | 18.2 | 0.00 | 0.00 | 0.00 | 21 | 1019.9 |
| 20260506220105 | 65 | 153 | 7.0 | 17.4 | 0.00 | 0.00 | 0.00 | 20 | 1020.0 |
| 20260506214615 | 65 | 145 | 8.7 | 20.0 | 0.00 | 0.00 | 0.00 | 22 | 1020.1 |
| 20260506213107 | 65 | 174 | 9.6 | 19.1 | 0.00 | 0.00 | 0.00 | 22 | 1020.2 |
| 20260506211611 | 64 | 160 | 13.0 | 18.2 | 0.00 | 0.00 | 0.00 | 22 | 1020.3 |
| 20260506210108 | 64 | 124 | 10.4 | 21.7 | 0.00 | 0.00 | 0.00 | 23 | 1020.2 |
| 20260506204633 | 64 | 162 | 11.3 | 20.0 | 0.00 | 0.00 | 0.00 | 23 | 1020.2 |
| 20260506203100 | 63 | 160 | 13.9 | 20.0 | 0.00 | 0.00 | 0.00 | 22 | 1020.3 |
| 20260506201600 | 64 | 191 | 10.4 | 23.5 | 0.00 | 0.00 | 0.00 | 22 | 1020.1 |
| 20260506200101 | 63 | 150 | 15.6 | 25.2 | 0.00 | 0.00 | 0.00 | 23 | 1020.0 |
| 20260506194607 | 63 | 205 | 12.2 | 20.0 | 0.00 | 0.00 | 0.00 | 24 | 1020.0 |
| 20260506193059 | 63 | 147 | 13.9 | 25.2 | 0.00 | 0.00 | 0.00 | 23 | 1020.0 |
| 20260506191559 | 63 | 159 | 14.8 | 26.1 | 0.00 | 0.00 | 0.00 | 23 | 1019.9 |
| 20260506190100 | 63 | 143 | 16.5 | 26.9 | 0.00 | 0.00 | 0.00 | 24 | 1019.8 |
| 20260506184600 | 62 | 165 | 18.2 | 24.3 | 0.00 | 0.00 | 0.00 | 23 | 1019.9 |
| 20260506183109 | 62 | 150 | 10.4 | 20.0 | 0.00 | 0.00 | 0.00 | 26 | 1019.9 |
| 20260506181602 | 61 | 156 | 10.4 | 19.1 | 0.00 | 0.00 | 0.00 | 26 | 1020.0 |
| 20260506180058 | 59 | 162 | 10.4 | 18.2 | 0.00 | 0.00 | 0.00 | 32 | 1020.1 |
| 20260506174559 | 58 | 190 | 9.6 | 17.4 | 0.00 | 0.00 | 0.00 | 33 | 1020.0 |
| 20260506173100 | 58 | 158 | 9.6 | 18.2 | 0.00 | 0.00 | 0.00 | 32 | 1019.9 |
| 20260506171604 | 57 | 156 | 10.4 | 15.6 | 0.00 | 0.00 | 0.00 | 32 | 1019.8 |
| 20260506170107 | 57 | 153 | 9.6 | 18.2 | 0.00 | 0.00 | 0.00 | 33 | 1019.5 |
| 20260506164603 | 58 | 148 | 12.2 | 19.1 | 0.00 | 0.00 | 0.00 | 34 | 1019.2 |
| 20260506163106 | 58 | 153 | 13.0 | 19.1 | 0.00 | 0.00 | 0.00 | 33 | 1019.1 |
| 20260506161607 | 57 | 169 | 13.0 | 17.4 | 0.00 | 0.00 | 0.00 | 35 | 1019.0 |
| 20260506160058 | 55 | 162 | 10.4 | 13.9 | 0.00 | 0.00 | 0.00 | 43 | 1018.8 |
| 20260506154613 | 56 | 186 | 7.0 | 12.2 | 0.00 | 0.00 | 0.00 | 53 | 1018.8 |
| 20260506153058 | 56 | 184 | 7.8 | 12.2 | 0.00 | 0.00 | 0.00 | 59 | 1018.6 |
| 20260506151558 | 54 | 141 | 7.0 | 11.3 | 0.00 | 0.00 | 0.00 | 66 | 1018.6 |
| 20260506150059 | 53 | 159 | 7.0 | 12.2 | 0.00 | 0.00 | 0.00 | 70 | 1018.2 |
| 20260506144604 | 53 | 133 | 6.1 | 11.3 | 0.00 | 0.00 | 0.00 | 72 | 1018.1 |
| 20260506143059 | 53 | 167 | 7.8 | 12.2 | 0.00 | 0.00 | 0.00 | 74 | 1018.0 |
| 20260506141604 | 52 | 193 | 5.2 | 10.4 | 0.00 | 0.00 | 0.00 | 79 | 1017.9 |
| 20260506140122 | 50 | 188 | 5.2 | 9.6 | 0.00 | 0.00 | 0.00 | 81 | 1017.6 |
| 20260506131558 | 46 | 161 | 0.9 | 1.7 | 0.00 | 0.00 | 0.00 | 87 | 1016.7 |
| 20260506130100 | 45 | 161 | 0.0 | 2.6 | 0.00 | 0.00 | 0.00 | 87 | 1016.5 |
| 20260506124601 | 45 | 178 | 1.7 | 2.6 | 0.00 | 0.00 | 0.00 | 87 | 1016.0 |
| 20260506123101 | 45 | 143 | 2.6 | 3.5 | 0.00 | 0.00 | 0.00 | 86 | 1015.4 |
| 20260506121558 | 45 | 145 | 2.6 | 3.5 | 0.00 | 0.00 | 0.00 | 86 | 1015.2 |
| 20260506120058 | 44 | 146 | 1.7 | 2.6 | 0.00 | 0.00 | 0.00 | 85 | 1014.9 |
| 20260506114604 | 44 | 134 | 0.0 | 0.9 | 0.00 | 0.00 | 0.00 | 84 | 1014.7 |
| 20260506113102 | 45 | 0 | 0.0 | 0.9 | 0.00 | 0.00 | 0.00 | 85 | 1014.6 |
| 20260506111607 | 45 | 0 | 0.0 | 0.9 | 0.00 | 0.00 | 0.00 | 84 | 1014.4 |
| 20260506110058 | 45 | 0 | 0.0 | 0.9 | 0.00 | 0.00 | 0.00 | 84 | 1014.1 |
| 20260506104601 | 46 | 0 | 0.0 | 4.3 | 0.00 | 0.00 | 0.00 | 83 | 1013.8 |
| 20260506103102 | 47 | 260 | 0.9 | 1.7 | 0.00 | 0.00 | 0.00 | 83 | 1013.6 |
| 20260506101559 | 47 | 0 | 0.0 | 1.7 | 0.00 | 0.00 | 0.00 | 83 | 1013.5 |
| 20260506094559 | 48 | 297 | 2.6 | 3.5 | 0.00 | 0.00 | 0.00 | 82 | 1012.9 |
| 20260506093107 | 49 | 33 | 1.7 | 2.6 | 0.00 | 0.00 | 0.00 | 80 | 1013.2 |
| 20260506091601 | 50 | 134 | 0.0 | 3.5 | 0.00 | 0.00 | 0.00 | 79 | 1013.2 |
| 20260506090059 | 50 | 159 | 2.6 | 5.2 | 0.00 | 0.00 | 0.00 | 78 | 1013.6 |
| 20260506084603 | 51 | 147 | 4.3 | 8.7 | 0.00 | 0.00 | 0.00 | 77 | 1013.4 |
| 20260506083101 | 51 | 163 | 7.0 | 11.3 | 0.00 | 0.00 | 0.00 | 76 | 1013.6 |
| 20260506081600 | 51 | 152 | 9.6 | 17.4 | 0.00 | 0.00 | 0.00 | 73 | 1013.8 |
| 20260506073058 | 46 | 149 | 1.7 | 3.5 | 0.00 | 0.00 | 0.00 | 63 | 1012.3 |
| 20260506071558 | 45 | 91 | 0.9 | 3.5 | 0.00 | 0.00 | 0.00 | 60 | 1011.6 |
| 20260506061602 | 45 | 86 | 0.9 | 1.7 | 0.00 | 0.00 | 0.00 | 60 | 1011.2 |